This is the latest recevied weather packets stored in our database for station/object WP4PW. If no packets are shown the sender has not sent any weather packets the latest 10 day(s).
| Time | Temp. | Humidity | Pressure | Rain* | Wind** | Luminosity | Snow |
|---|---|---|---|---|---|---|---|
| 1777978274 | 25.56° C | 94% | 1020.7 hPa | 0 mm | - | 104 W/m² | - |
| 1777977971 | 25.56° C | 95% | 1020.6 hPa | 0 mm | - | 90 W/m² | - |
| 1777977669 | 25° C | 96% | 1020.5 hPa | 0 mm | - | 64 W/m² | - |
| 1777977365 | 25° C | 97% | 1020.3 hPa | 0 mm | - | 35 W/m² | - |
| 1777977063 | 25° C | 97% | 1020.4 hPa | 0 mm | - | 33 W/m² | - |
| 1777976760 | 25° C | 97% | 1020.2 hPa | 0 mm | - | 40 W/m² | - |
| 1777976457 | 24.44° C | 98% | 1020.3 hPa | 0 mm | - | 28 W/m² | - |
| 1777976156 | 24.44° C | 98% | 1020.1 hPa | 0 mm | - | 18 W/m² | - |
| 1777975851 | 24.44° C | 98% | 1020.1 hPa | 0 mm | - | 15 W/m² | - |
| 1777975548 | 24.44° C | 98% | 1020 hPa | 0 mm | - | 11 W/m² | - |
| 1777975245 | 24.44° C | 98% | 1020.3 hPa | 0 mm | - | 6 W/m² | - |
| 1777974941 | 24.44° C | 98% | 1020 hPa | 0 mm | - | 4 W/m² | - |
| 1777974638 | 24.44° C | 98% | 1020.1 hPa | 0 mm | - | 2 W/m² | - |
| 1777974334 | 24.44° C | 98% | 1020 hPa | 0 mm | - | 1 W/m² | - |
| 1777974031 | 24.44° C | 98% | 1019.8 hPa | 0 mm | - | 0 W/m² | - |
| 1777973727 | 24.44° C | 98% | 1019.9 hPa | 0 mm | - | 0 W/m² | - |
| 1777973425 | 24.44° C | 98% | 1019.9 hPa | 0 mm | - | 0 W/m² | - |
| 1777973122 | 24.44° C | 98% | 1020 hPa | 0 mm | - | 0 W/m² | - |
| 1777972820 | 24.44° C | 98% | 1020.1 hPa | 0 mm | - | 0 W/m² | - |
| 1777972517 | 24.44° C | 98% | 1019.9 hPa | 0 mm | - | 0 W/m² | - |
| 1777972215 | 24.44° C | 98% | 1019.8 hPa | 0 mm | - | 0 W/m² | - |
| 1777971913 | 24.44° C | 98% | 1020 hPa | 0 mm | - | 0 W/m² | - |
| 1777971610 | 24.44° C | 98% | 1019.7 hPa | 0 mm | - | 0 W/m² | - |
| 1777971308 | 24.44° C | 98% | 1019.8 hPa | 0 mm | - | 0 W/m² | - |
| 1777971006 | 25° C | 99% | 1019.7 hPa | 0 mm | - | 0 W/m² | - |
* Rain latest hour (hover to see other rain measurements)
** Current wind speed in m/s (hover to see current wind gust speed)